Everett, WA

7:05 PM PST on December 15, 2019 (GMT -0800)
Snohomish County

Weather History for KPAE - October, 2019

Change the Weather History Date:

Wednesday, October 30, 2019

  Actual Average Record
Temperature  
Mean Temperature 40 °F -  
Max Temperature 46 °F 55 °F 74 °F (1965)
Min Temperature 34 °F 39 °F 25 °F (1991)
Degree Days  
Heating Degree Days 25    
Moisture  
Dew Point 21 °F    
Average Humidity 49    
Maximum Humidity 82    
Minimum Humidity 34    
Precipitation  
Precipitation 0.00 in - - ()
Sea Level Pressure  
Sea Level Pressure 30.39 in    
Wind  
Wind Speed 5 mph (NNE)    
Max Wind Speed 8 mph    
Max Gust Speed -    
Visibility 10 miles    
Events      
Averages and records for this station are not official NWS values.
T = Trace of Precipitation, MM = Missing Value Source: NWS Daily Summary

Daily Weather History Graph

Daily Weather History Graph

Search for Another Location

Airport or City:

Astronomy

Oct. 30, 2019 Rise Set
Actual Time 7:50 AM PDT 5:54 PM PDT
Civil Twilight 7:18 AM PDT 6:26 PM PDT
Nautical Twilight 6:41 AM PDT 7:02 PM PDT
Astronomical Twilight 6:05 AM PDT 7:38 PM PDT
Moon 10:49 AM PDT (10/30) 7:55 PM PDT (10/30)
Length of Visible Light 11h 08m
Length of Day
10h 03m
Waxing Crescent, 9% of the Moon is Illuminated
Oct 30
Waxing Crescent
Nov 4
First Quarter
Nov 12
Full
Nov 19
Last Quarter
Nov 26
New

Hourly Weather History & Observations

Time (PDT) Temp. Windchill Dew Point Humidity Pressure Visibility Wind Dir Wind Speed Gust Speed Precip Events Conditions
12:53 AM 37.0 °F 32.4 °F 12.0 °F 36% 30.46 in 10.0 mi ESE 5.8 mph - N/A   Clear
1:53 AM 36.0 °F 31.1 °F 12.0 °F 37% 30.45 in 10.0 mi ESE 5.8 mph - N/A   Clear
2:53 AM 37.0 °F 32.4 °F 10.9 °F 34% 30.45 in 10.0 mi East 5.8 mph - N/A   Clear
3:53 AM 37.0 °F 31.0 °F 10.9 °F 34% 30.43 in 10.0 mi East 8.1 mph - N/A   Clear
4:53 AM 37.0 °F 31.0 °F 10.9 °F 34% 30.43 in 10.0 mi East 8.1 mph - N/A   Clear
5:53 AM 36.0 °F 31.1 °F 10.9 °F 36% 30.42 in 10.0 mi ESE 5.8 mph - N/A   Clear
6:53 AM 35.1 °F - 12.9 °F 40% 30.42 in 10.0 mi Calm Calm - N/A   Clear
7:53 AM 34.0 °F - 14.0 °F 44% 30.41 in 10.0 mi Calm Calm - N/A   Clear
8:53 AM 36.0 °F 33.3 °F 18.0 °F 48% 30.41 in 10.0 mi North 3.5 mph - N/A   Clear
9:53 AM 39.9 °F 36.7 °F 24.1 °F 53% 30.42 in 10.0 mi NNE 4.6 mph - N/A   Clear
10:53 AM 43.0 °F 40.3 °F 19.0 °F 38% 30.41 in 10.0 mi North 4.6 mph - N/A   Clear
11:53 AM 44.1 °F 40.8 °F 21.0 °F 40% 30.40 in 10.0 mi Variable 5.8 mph - N/A   Clear
12:53 PM 44.1 °F 40.8 °F 25.0 °F 47% 30.39 in 10.0 mi North 5.8 mph - N/A   Clear
1:53 PM 46.0 °F 43.1 °F 23.0 °F 40% 30.37 in 10.0 mi NNW 5.8 mph - N/A   Clear
2:53 PM 46.9 °F - 24.1 °F 41% 30.36 in 10.0 mi North 5.8 mph - N/A   Clear
3:53 PM 46.9 °F - 23.0 °F 39% 30.35 in 10.0 mi NNW 5.8 mph - N/A   Clear
4:53 PM 45.0 °F 41.8 °F 30.0 °F 56% 30.35 in 10.0 mi North 5.8 mph - N/A   Clear
5:53 PM 43.0 °F 40.3 °F 25.0 °F 49% 30.34 in 10.0 mi NNW 4.6 mph - N/A   Clear
6:53 PM 42.1 °F 39.2 °F 28.9 °F 60% 30.35 in 10.0 mi North 4.6 mph - N/A   Clear
7:53 PM 42.1 °F 40.2 °F 30.0 °F 62% 30.35 in 10.0 mi North 3.5 mph - N/A   Clear
8:53 PM 39.9 °F - 30.9 °F 70% 30.34 in 10.0 mi Calm Calm - N/A   Clear
9:53 PM 39.0 °F 36.8 °F 30.9 °F 73% 30.34 in 10.0 mi North 3.5 mph - N/A   Clear
10:53 PM 37.9 °F 35.5 °F 30.9 °F 76% 30.33 in 10.0 mi NNE 3.5 mph - N/A   Clear
11:53 PM 36.0 °F - 30.9 °F 82% 30.34 in 10.0 mi Calm Calm - N/A   Clear